• In Netherlands
  • List of Countries
  • For 7 days
  • Water Temperature
  • Satellite Maps
  • Weather Map
  • Weather Widgets
  • user-avatar
    Login

    Hourly Weather Sevan

    Today, 29 April, Saturday

    Time Temperature Precipitation Wind Pressure Humidity
    00:00 +8°C° 0 mm 1 mps 643 mmHg 85%
    01:00 +7°C° 0 mm 1 mps 643 mmHg 86%
    02:00 +7°C° 0 mm 1 mps 642 mmHg 86%
    03:00 +7°C° 0 mm 1 mps 641 mmHg 90%
    04:00 +7°C° 0.1 mm 1 mps 642 mmHg 88%
    05:00 +8°C° 0.1 mm 1 mps 642 mmHg 87%
    06:00 +8°C° 0.1 mm 1 mps 642 mmHg 85%
    07:00 +10°C° 0.1 mm 1 mps 642 mmHg 77%
    08:00 +12°C° 0.1 mm 1 mps 643 mmHg 68%
    09:00 +14°C° 0.1 mm 1 mps 643 mmHg 59%
    10:00 +16°C° 0.3 mm 1 mps 643 mmHg 55%
    11:00 +18°C° 0.3 mm 1 mps 643 mmHg 52%
    12:00 +18°C° 0.3 mm 2 mps 643 mmHg 48%
    13:00 +18°C° 0.6 mm 2 mps 643 mmHg 49%
    14:00 +19°C° 0.6 mm 1 mps 642 mmHg 50%
    15:00 +19°C° 0.6 mm 1 mps 642 mmHg 51%
    16:00 +18°C° 0.5 mm 1 mps 642 mmHg 55%
    17:00 +16°C° 0.5 mm 1 mps 642 mmHg 60%
    18:00 +15°C° 0.5 mm 1 mps 641 mmHg 65%
    19:00 +13°C° 0.5 mm 1 mps 641 mmHg 71%
    20:00 +12°C° 0.5 mm 1 mps 641 mmHg 76%
    21:00 +10°C° 0.5 mm 1 mps 641 mmHg 82%
    22:00 +10°C° 0.4 mm 1 mps 641 mmHg 83%
    23:00 +10°C° 0.4 mm 1 mps 641 mmHg 84%

    Tomorrow, 30 April, Sunday

    Time Temperature Precipitation Wind Pressure Humidity
    00:00 +10°C° 0.4 mm 1 mps 641 mmHg 85%
    01:00 +9°C° 0.3 mm 1 mps 641 mmHg 86%
    02:00 +9°C° 0.3 mm 1 mps 640 mmHg 87%
    03:00 +8°C° 0.3 mm 1 mps 640 mmHg 88%
    04:00 +8°C° 0.1 mm 1 mps 640 mmHg 87%
    05:00 +8°C° 0.1 mm 1 mps 641 mmHg 86%
    06:00 +8°C° 0.1 mm 1 mps 641 mmHg 85%
    07:00 +11°C° 0 mm 1 mps 641 mmHg 74%
    08:00 +13°C° 0 mm 1 mps 642 mmHg 62%
    09:00 +16°C° 0 mm 1 mps 643 mmHg 51%
    10:00 +18°C° 0.1 mm 1 mps 643 mmHg 47%
    11:00 +18°C° 0.1 mm 2 mps 643 mmHg 42%
    12:00 +19°C° 0.1 mm 2 mps 643 mmHg 37%
    13:00 +19°C° 0.2 mm 2 mps 643 mmHg 38%
    14:00 +19°C° 0.2 mm 2 mps 643 mmHg 39%
    15:00 +19°C° 0.2 mm 2 mps 642 mmHg 39%
    16:00 +18°C° 0.3 mm 2 mps 642 mmHg 45%
    17:00 +18°C° 0.3 mm 1 mps 641 mmHg 50%
    18:00 +16°C° 0.3 mm 1 mps 641 mmHg 56%
    19:00 +14°C° 0.1 mm 1 mps 641 mmHg 62%
    20:00 +11°C° 0.1 mm 1 mps 640 mmHg 68%
    21:00 +9°C° 0.1 mm 1 mps 640 mmHg 73%
    22:00 +9°C° 0.1 mm 1 mps 640 mmHg 75%
    23:00 +8°C° 0.1 mm 1 mps 640 mmHg 76%

    Day after tomorrow, 1 May, Monday

    Time Temperature Precipitation Wind Pressure Humidity
    00:00 +8°C° 0.1 mm 1 mps 640 mmHg 78%
    01:00 +7°C° 0 mm 1 mps 640 mmHg 77%
    02:00 +7°C° 0 mm 1 mps 640 mmHg 77%
    03:00 +6°C° 0 mm 1 mps 639 mmHg 77%
    04:00 +7°C° 0 mm 1 mps 640 mmHg 73%
    05:00 +8°C° 0 mm 1 mps 640 mmHg 68%
    06:00 +9°C° 0 mm 1 mps 641 mmHg 64%
    07:00 +12°C° 0 mm 1 mps 642 mmHg 56%
    08:00 +14°C° 0 mm 1 mps 643 mmHg 48%
    09:00 +18°C° 0 mm 1 mps 644 mmHg 39%
    10:00 +20°C° 0 mm 1 mps 644 mmHg 36%
    11:00 +20°C° 0 mm 2 mps 644 mmHg 32%
    12:00 +21°C° 0 mm 2 mps 644 mmHg 29%
    13:00 +21°C° 0 mm 2 mps 644 mmHg 28%
    14:00 +23°C° 0 mm 2 mps 643 mmHg 28%
    15:00 +23°C° 0 mm 2 mps 643 mmHg 27%
    16:00 +21°C° 0 mm 1 mps 643 mmHg 35%
    17:00 +20°C° 0 mm 1 mps 642 mmHg 42%
    18:00 +18°C° 0 mm 1 mps 642 mmHg 49%
    19:00 +15°C° 0 mm 1 mps 642 mmHg 54%
    20:00 +13°C° 0 mm 1 mps 641 mmHg 59%
    21:00 +12°C° 0 mm 2 mps 641 mmHg 63%
    22:00 +10°C° 0 mm 2 mps 641 mmHg 66%
    23:00 +11°C° 0 mm 1 mps 641 mmHg 69%

    2 May, Tuesday

    Time Temperature Precipitation Wind Pressure Humidity
    00:00 +11°C° 0 mm 1 mps 641 mmHg 72%
    01:00 +11°C° 0 mm 1 mps 641 mmHg 73%
    02:00 +10°C° 0 mm 1 mps 641 mmHg 74%
    03:00 +10°C° 0 mm 1 mps 641 mmHg 75%
    04:00 +10°C° 0 mm 1 mps 641 mmHg 74%
    05:00 +11°C° 0 mm 1 mps 641 mmHg 73%
    06:00 +11°C° 0 mm 1 mps 640 mmHg 71%
    07:00 +13°C° 0 mm 1 mps 641 mmHg 62%
    08:00 +16°C° 0 mm 1 mps 642 mmHg 52%
    09:00 +19°C° 0 mm 1 mps 642 mmHg 43%
    10:00 +18°C° 0.1 mm 2 mps 642 mmHg 43%
    11:00 +19°C° 0.1 mm 2 mps 642 mmHg 43%
    12:00 +19°C° 0.1 mm 2 mps 642 mmHg 44%
    13:00 +19°C° 0.5 mm 2 mps 642 mmHg 47%
    14:00 +18°C° 0.5 mm 2 mps 642 mmHg 51%
    15:00 +19°C° 0.5 mm 1 mps 641 mmHg 55%
    16:00 +18°C° 0.4 mm 1 mps 641 mmHg 58%
    17:00 +18°C° 0.4 mm 1 mps 641 mmHg 62%
    18:00 +16°C° 0.4 mm 1 mps 641 mmHg 66%
    19:00 +14°C° 0.3 mm 1 mps 640 mmHg 71%
    20:00 +13°C° 0.3 mm 1 mps 640 mmHg 77%
    21:00 +11°C° 0.3 mm 1 mps 640 mmHg 83%
    22:00 +11°C° 0.3 mm 1 mps 640 mmHg 84%
    23:00 +11°C° 0.3 mm 1 mps 640 mmHg 85%

    3 May, Wednesday

    Time Temperature Precipitation Wind Pressure Humidity
    00:00 +11°C° 0.3 mm 1 mps 639 mmHg 85%
    01:00 +10°C° 0.1 mm 1 mps 639 mmHg 86%
    02:00 +9°C° 0.1 mm 1 mps 639 mmHg 87%
    03:00 +8°C° 0.1 mm 1 mps 638 mmHg 87%
    04:00 +8°C° 0 mm 0 mps 638 mmHg 85%
    05:00 +9°C° 0 mm 0 mps 639 mmHg 83%
    06:00 +9°C° 0 mm 0 mps 639 mmHg 81%
    07:00 +13°C° 0.1 mm 1 mps 639 mmHg 72%
    08:00 +15°C° 0.1 mm 1 mps 640 mmHg 63%
    09:00 +18°C° 0.1 mm 1 mps 641 mmHg 54%
    10:00 +19°C° 0.2 mm 1 mps 640 mmHg 52%
    11:00 +20°C° 0.2 mm 1 mps 640 mmHg 50%
    12:00 +20°C° 0.2 mm 1 mps 640 mmHg 48%
    13:00 +20°C° 0.6 mm 1 mps 640 mmHg 49%
    14:00 +20°C° 0.6 mm 1 mps 640 mmHg 51%
    15:00 +20°C° 0.6 mm 1 mps 640 mmHg 52%
    16:00 +19°C° 0.8 mm 1 mps 639 mmHg 57%
    17:00 +18°C° 0.8 mm 1 mps 639 mmHg 61%
    18:00 +16°C° 0.8 mm 1 mps 639 mmHg 66%
    19:00 +14°C° 0.4 mm 1 mps 639 mmHg 70%
    20:00 +13°C° 0.4 mm 1 mps 639 mmHg 73%
    21:00 +12°C° 0.4 mm 1 mps 639 mmHg 77%
    22:00 +11°C° 0 mm 1 mps 639 mmHg 78%
    23:00 +10°C° 0 mm 1 mps 638 mmHg 78%

    4 May, Thursday

    Time Temperature Precipitation Wind Pressure Humidity
    00:00 +10°C° 0 mm 1 mps 638 mmHg 79%
    01:00 +9°C° 0 mm 1 mps 638 mmHg 80%
    02:00 +9°C° 0 mm 1 mps 638 mmHg 80%
    03:00 +8°C° 0 mm 1 mps 637 mmHg 81%
    04:00 +9°C° 0 mm 1 mps 638 mmHg 78%
    05:00 +9°C° 0 mm 1 mps 638 mmHg 76%
    06:00 +10°C° 0 mm 1 mps 638 mmHg 73%
    07:00 +12°C° 0 mm 1 mps 639 mmHg 66%
    08:00 +14°C° 0 mm 1 mps 639 mmHg 58%
    09:00 +16°C° 0 mm 1 mps 640 mmHg 51%
    10:00 +18°C° 0.1 mm 1 mps 640 mmHg 48%
    11:00 +19°C° 0.1 mm 1 mps 640 mmHg 45%
    12:00 +19°C° 0.1 mm 2 mps 640 mmHg 42%
    13:00 +19°C° 0.4 mm 2 mps 640 mmHg 42%
    14:00 +20°C° 0.4 mm 1 mps 640 mmHg 42%
    15:00 +20°C° 0.4 mm 1 mps 640 mmHg 43%
    16:00 +19°C° 0.4 mm 1 mps 639 mmHg 49%
    17:00 +18°C° 0.4 mm 1 mps 639 mmHg 55%
    18:00 +15°C° 0.4 mm 0 mps 639 mmHg 61%
    19:00 +13°C° 0.3 mm 0 mps 639 mmHg 66%
    20:00 +13°C° 0.3 mm 1 mps 639 mmHg 71%
    21:00 +12°C° 0.3 mm 1 mps 639 mmHg 76%
    22:00 +11°C° 0.3 mm 1 mps 639 mmHg 78%
    23:00 +11°C° 0.3 mm 1 mps 639 mmHg 79%
    Show more